Location: Albuquerque Trailhead
(34.7934°N, 106.3736°W)
Time: 00:04:41
(UTC+00:00)

NOAA 19 - Pass Details

Date: 02 April 2023
Orbit: 840 x 859 km, 99.1° (Epoch: 28 May)

Event Time Altitude Azimuth Distance (km) Brightness Sun altitude
Exits shadow 04:37:08 - 236° (SW) 2,779 8.0 -36.6°
Reaches altitude 10° 04:39:20 10° 256° (WSW) 2,466 7.9 -37.0°
Maximum altitude 04:40:29 11° 269° (W) 2,421 8.0 -37.2°
Drops below altitude 10° 04:41:39 10° 281° (W) 2,467 8.2 -37.3°
Sets 04:46:25 0° 319° (NW) 3,404 9.3 -38.1°
